Date String (YYYY-MM-DD hh:mm:ss) UTC,Instrument flags,Ambient pressure (hPa),Sample flow (lpm),Bypass flow (lpm),Sample temperature (°C),Ambient temperature (°C),ASC tube jacket temperature (°C),LED temperature (°C),Box temperature (°C),Sample RH (%),Span deviation,Mass concentration (μg/m³),Mass concentration (μg/m³),Mass concentration (μg/m³)
DateTimeUTC,F1_M11,P_M11,Q1_M11,Q2_M11,T1_M11,T2_M11,T3_M11,T4_M11,T5_M11,U1_M11,ZSPAN_M11,X0_M11,X2_M11,X1_M11
2022-05-10 15:00:00,,0827.4,4.99,0.00,25.2,24.4,00.0,34.3,27.1,11.3,0000.0,0014.80,0004.30,0001.66
2022-05-10 15:01:00,,0827.4,5.00,0.00,25.2,24.4,00.0,34.3,27.0,11.2,0000.0,0014.47,0004.36,0001.66
2022-05-10 15:02:00,,0827.4,5.00,0.00,25.2,24.3,00.0,34.3,27.0,11.2,0000.0,0014.04,0004.42,0001.66
2022-05-10 15:03:00,,0827.4,5.00,0.00,25.2,24.3,00.0,34.3,27.0,11.3,0000.0,0013.99,0004.46,0001.69
2022-05-10 15:04:00,,0827.4,4.99,0.00,25.2,24.4,00.0,34.2,27.0,11.3,0000.0,0014.06,0004.46,0001.71
2022-05-10 15:05:00,,0827.4,5.01,0.00,25.2,24.4,00.0,34.2,27.1,11.4,0000.0,0014.39,0004.51,0001.74
2022-05-10 15:06:00,,0827.4,5.00,0.00,25.2,24.4,00.0,34.2,27.1,11.5,0000.0,0014.69,0004.52,0001.74
2022-05-10 15:07:00,,0827.4,5.00,0.00,25.2,24.4,00.0,34.2,27.1,11.8,0000.0,0014.62,0004.51,0001.74
2022-05-10 15:08:00,,0827.4,5.00,0.00,25.2,24.4,00.0,34.2,27.0,11.5,0000.0,0014.51,0004.47,0001.76
2022-05-10 15:09:00,,0827.4,5.00,0.00,25.2,24.4,00.0,34.2,27.1,11.6,0000.0,0014.86,0004.53,0001.79
2022-05-10 15:10:00,,0827.4,5.01,0.00,25.2,24.4,00.0,34.2,27.1,12.1,0000.0,0014.54,0004.58,0001.82
2022-05-10 15:11:00,,0827.4,4.99,0.00,25.2,24.4,00.0,34.2,27.1,12.4,0000.0,0014.49,0004.69,0001.86
2022-05-10 15:12:00,,0827.4,5.00,0.00,25.2,24.4,00.0,34.2,27.1,12.0,0000.0,0014.44,0004.73,0001.89
2022-05-10 15:13:00,,0827.4,5.01,0.00,25.2,24.4,00.0,34.2,27.0,12.4,0000.0,0014.65,0004.73,0001.92
2022-05-10 15:14:00,,0827.4,4.99,0.00,25.2,24.4,00.0,34.2,27.0,12.1,0000.0,0014.98,0004.75,0001.91
2022-05-10 15:15:00,,0827.4,5.02,0.00,25.2,24.4,00.0,34.2,27.0,11.8,0000.0,0015.46,0004.81,0001.89
2022-05-10 15:16:00,,0827.4,5.00,0.00,25.2,24.4,00.0,34.2,27.0,11.6,0000.0,0016.64,0004.81,0001.89
2022-05-10 15:17:00,,0827.4,5.00,0.00,25.1,24.4,00.0,34.2,27.0,11.9,0000.0,0016.78,0004.79,0001.90
2022-05-10 15:18:00,,0827.4,5.00,0.00,25.1,24.4,00.0,34.2,26.9,12.0,0000.0,0017.57,0004.83,0001.92
2022-05-10 15:19:00,,0827.4,5.00,0.00,25.1,24.3,00.0,34.2,26.9,11.9,0000.0,0018.56,0004.83,0001.91
2022-05-10 15:20:00,,0827.4,5.00,0.00,25.1,24.3,00.0,34.2,26.9,11.7,0000.0,0018.28,0004.79,0001.92
2022-05-10 15:21:00,,0827.4,5.00,0.00,25.1,24.3,00.0,34.2,26.9,11.9,0000.0,0019.03,0004.82,0001.93
2022-05-10 15:22:00,,0827.4,5.00,0.00,25.1,24.3,00.0,34.2,26.9,11.9,0000.0,0019.51,0004.78,0001.95
2022-05-10 15:23:00,,0827.4,5.01,0.00,25.1,24.3,00.0,34.1,26.9,12.0,0000.0,0019.84,0004.77,0001.94
2022-05-10 15:24:00,,0827.4,5.00,0.00,25.0,24.3,00.0,34.1,26.8,11.9,0000.0,0019.72,0004.77,0001.92
2022-05-10 15:25:00,,0827.4,5.00,0.00,25.0,24.3,00.0,34.1,26.8,12.0,0000.0,0019.42,0004.76,0001.93
2022-05-10 15:26:00,,0827.4,5.00,0.00,25.0,24.2,00.0,34.1,26.8,11.4,0000.0,0018.86,0004.74,0001.94
2022-05-10 15:27:00,,0827.4,5.00,0.00,25.0,24.2,00.0,34.1,26.8,11.4,0000.0,0017.75,0004.73,0001.95
2022-05-10 15:28:00,,0827.4,5.00,0.00,25.0,24.2,00.0,34.1,26.8,12.1,0000.0,0017.79,0004.68,0001.96
2022-05-10 15:29:00,,0827.4,5.00,0.00,25.0,24.2,00.0,34.1,26.8,12.0,0000.0,0017.33,0004.68,0001.95
2022-05-10 15:30:00,,0827.4,4.99,0.00,25.0,24.2,00.0,34.1,26.8,12.0,0000.0,0016.24,0004.72,0001.95
2022-05-10 15:31:00,,0827.4,4.99,0.00,25.0,24.3,00.0,34.1,26.8,11.5,0000.0,0016.21,0004.68,0001.94
2022-05-10 15:32:00,,0827.4,5.00,0.00,25.0,24.3,00.0,34.1,26.9,11.2,0000.0,0015.95,0004.69,0001.95
2022-05-10 15:33:00,,0827.4,5.00,0.00,25.0,24.4,00.0,34.1,26.9,11.3,0000.0,0015.88,0004.71,0001.92
2022-05-10 15:34:00,,0827.3,5.00,0.00,25.0,24.4,00.0,34.1,26.9,11.1,0000.0,0016.17,0004.71,0001.92
2022-05-10 15:35:00,,0827.3,5.01,0.00,25.0,24.3,00.0,34.1,26.9,11.4,0000.0,0015.86,0004.68,0001.93
2022-05-10 15:36:00,,0827.3,5.01,0.00,25.1,24.4,00.0,34.1,27.0,11.9,0000.0,0016.05,0004.68,0001.93
2022-05-10 15:37:00,,0827.3,4.99,0.00,25.1,24.4,00.0,34.1,27.0,11.6,0000.0,0016.45,0004.67,0001.92
2022-05-10 15:38:00,,0827.3,5.00,0.00,25.1,24.4,00.0,34.1,27.0,11.5,0000.0,0017.49,0004.63,0001.90
2022-05-10 15:39:00,,0827.3,4.99,0.00,25.1,24.4,00.0,34.1,27.0,11.3,0000.0,0017.24,0004.61,0001.85
2022-05-10 15:40:00,,0827.2,5.00,0.00,25.1,24.4,00.0,34.1,27.0,11.3,0000.0,0017.10,0004.58,0001.84
2022-05-10 15:41:00,,0827.3,5.01,0.00,25.1,24.4,00.0,34.1,27.0,11.2,0000.0,0016.89,0004.50,0001.84
2022-05-10 15:42:00,,0827.3,5.00,0.00,25.1,24.4,00.0,34.1,27.0,11.2,0000.0,0016.83,0004.50,0001.82
2022-05-10 15:43:00,,0827.3,5.01,0.00,25.1,24.4,00.0,34.1,27.0,12.1,0000.0,0016.14,0004.42,0001.79
2022-05-10 15:44:00,,0827.3,5.00,0.00,25.1,24.4,00.0,34.1,27.0,12.0,0000.0,0015.43,0004.42,0001.80
2022-05-10 15:45:00,,0827.3,5.01,0.00,25.1,24.4,00.0,34.1,27.0,12.1,0000.0,0015.21,0004.43,0001.78
2022-05-10 15:46:00,,0827.3,5.00,0.00,25.1,24.4,00.0,34.1,27.0,12.4,0000.0,0015.51,0004.41,0001.76
2022-05-10 15:47:00,,0827.3,4.99,0.00,25.1,24.4,00.0,34.1,27.0,12.3,0000.0,0015.91,0004.42,0001.74
2022-05-10 15:48:00,,0827.3,5.00,0.00,25.1,24.5,00.0,34.1,27.0,12.3,0000.0,0015.64,0004.44,0001.75
2022-05-10 15:49:00,,0827.3,5.00,0.00,25.1,24.5,00.0,34.1,26.9,12.3,0000.0,0014.62,0004.45,0001.76
2022-05-10 15:50:00,,0827.3,4.99,0.00,25.1,24.4,00.0,34.1,26.9,11.3,0000.0,0014.93,0004.50,0001.78
2022-05-10 15:51:00,,0827.3,5.00,0.00,25.1,24.4,00.0,34.1,26.9,11.2,0000.0,0014.81,0004.47,0001.77
2022-05-10 15:52:00,,0827.3,5.01,0.00,25.1,24.4,00.0,34.1,26.9,11.6,0000.0,0014.82,0004.44,0001.76
2022-05-10 15:53:00,,0827.6,5.00,0.00,25.1,24.4,00.0,34.1,26.9,11.5,0000.0,0014.94,0004.45,0001.77
2022-05-10 15:54:00,,0827.6,5.00,0.00,25.1,24.4,00.0,34.1,27.0,11.1,0000.0,0016.26,0004.55,0001.77
2022-05-10 15:55:00,,0827.3,5.00,0.00,25.1,24.4,00.0,34.1,27.0,11.1,0000.0,0016.81,0004.57,0001.75
2022-05-10 15:56:00,,0827.7,5.00,0.00,25.1,24.4,00.0,34.1,27.0,11.1,0000.0,0016.80,0004.56,0001.76
2022-05-10 15:57:00,,0827.4,5.00,0.00,25.1,24.4,00.0,34.1,27.0,11.0,0000.0,0016.95,0004.60,0001.76
2022-05-10 15:58:00,,0827.2,5.00,0.00,25.1,24.3,00.0,34.1,26.9,11.1,0000.0,0017.35,0004.57,0001.76
2022-05-10 15:59:00,,0827.2,4.99,0.00,25.1,24.3,00.0,34.1,26.8,11.6,0000.0,0016.98,0004.57,0001.76
